{"data":{"norad_id":52102,"intl_designator":"2022-029Q","name":"STARLINK-3709","alt_names":[],"object_type":"PAYLOAD","status":"ACTIVE","operator":null,"country":"US","launch_date":"2022-03-19","launch_site_code":"AFETR","launch_vehicle":null,"mission":null,"orbit_class":"UNKNOWN","rcs_meters":null,"size_class":null,"mass_kg":null,"dimensions":null,"purposes":["comms"],"wikipedia_slug":null,"has_3d_model":false,"image_url":null,"decayed_at":null,"tle_current":{"epoch":"2026-09-20T00:27:55.092096Z","epoch_age_seconds":97610,"freshness":"FRESH","line1":"1 52102U 22029Q   26263.01938764 -.00003408  00000+0 -92342-4 0  9992","line2":"2 52102  53.1575 272.1314 0001290  96.6959 263.4190 15.33543728250322","mean_motion":15.33543728,"eccentricity":0.000129,"inclination_deg":53.1575,"raan_deg":272.1314,"arg_perigee_deg":96.6959,"mean_anomaly_deg":263.419,"bstar":-9.2342e-5,"rev_number":25032,"period_min":93.900159069999,"perigee_km":464.36664831905,"apogee_km":466.1322420219,"semimajor_km":6843.3864451705,"source":"CELESTRAK","updated_at":"2026-09-20T09:00:39.986115Z"}}}